This demonstration page uses our WeatherBlox Daily Observations layout. Learn more.

Left ArrowRight Arrow

38.20091, -84.87328

Hourly Observations for September 19, 2016

Temp ( °F °C ) Dew Point ( °F °C ) Humidity (%) Winds ( mph kmh ) Pressure ( in mb ) Visibility ( mi km ) Precip ( " mm )
12:53 am 00:53 Mostly Clear 71 21.7 66 18.9 84 84 NNW 5 7 29.97 1015 10 16 0.00 0.00
1:53 am 01:53 Clear 70 21.1 66 18.9 87 87 NNW 3 6 29.97 1015 10 16 0.00 0.00
2:53 am 02:53 Clear 69 20.6 65 18.3 87 87 Calm 29.97 1015 10 16 0.00 0.00
3:53 am 03:53 Clear 67 19.4 64 17.8 91 91 Calm 29.96 1015 8 13 0.00 0.00
4:53 am 04:53 Clear 66 18.9 63 17.2 90 90 NNW 3 6 29.96 1015 10 16 0.00 0.00
5:53 am 05:53 Clear 66 18.9 62 16.7 87 87 Calm 29.98 1015 10 16 0.00 0.00
6:53 am 06:53 Clear 64 17.8 61 16.1 90 90 Calm 30.01 1016 8 13 0.00 0.00
7:53 am 07:53 Sunny 64 17.8 61 16.1 90 90 Calm 30.03 1017 10 16 0.00 0.00
8:53 am 08:53 Sunny 70 21.1 63 17.2 79 79 Calm 30.04 1017 10 16 0.00 0.00
9:53 am 09:53 Sunny 74 23.3 62 16.7 67 67 N 6 9 30.05 1018 10 16 0.00 0.00
10:53 am 10:53 Sunny 78 25.6 64 17.8 62 62 VRB 5 7 30.06 1018 10 16 0.00 0.00
11:53 am 11:53 Sunny 80 26.7 64 17.8 58 58 NE 8 13 30.06 1018 10 16 0.00 0.00
12:53 pm 12:53 Partly Cloudy 83 28.3 63 17.2 51 51 VRB 6 9 30.05 1018 10 16 0.00 0.00
1:53 pm 13:53 Sunny 84 28.9 60 15.6 44 44 VRB 5 7 30.04 1017 10 16 0.00 0.00
2:53 pm 14:53 Partly Cloudy 84 28.9 61 16.1 46 46 VRB 3 6 30.03 1017 10 16 0.00 0.00
3:53 pm 15:53 Sunny 86 30 58 14.4 39 39 NW 9 15 30.02 1017 10 16 0.00 0.00
4:53 pm 16:53 Sunny 86 30 56 13.3 36 36 WNW 7 11 30.02 1017 10 16 0.00 0.00
5:53 pm 17:53 Sunny 86 30 56 13.3 36 36 NW 6 9 30.01 1016 10 16 0.00 0.00
6:53 pm 18:53 Sunny 83 28.3 59 15 44 44 NNW 5 7 30.02 1017 10 16 0.00 0.00
7:53 pm 19:53 Clear 74 23.3 62 16.7 67 67 Calm 30.03 1017 10 16 0.00 0.00
8:53 pm 20:53 Clear 72 22.2 61 16.1 68 68 Calm 30.05 1018 10 16 0.00 0.00
9:53 pm 21:53 Clear 69 20.6 60 15.6 73 73 Calm 30.06 1018 10 16 0.00 0.00
10:53 pm 22:53 Clear 68 20 60 15.6 76 76 Calm 30.07 1018 10 16 0.00 0.00
11:53 pm 23:53 Clear 65 18.3 60 15.6 84 84 Calm 30.08 1019 10 16 0.00 0.00

Powered by AerisWeather